Wind_Speed
29 29 29 28 29 28 27 27 28 28 30 29 31 31 33 33 33 34 33 33 35 33 33 31 30 29 27 25 26 27 29 33 36 35 33 29 27 26 23 20 20 18 16 17 22
28 30 32 30 29 30 29 29 30 30 30 31 32 33 35 35 32 33 34 34 34 34 35 34 34 31 26 25 25 27 27 27 31 34 36 36 34 31 30 26 26 22 24 21 21
28 28 30 31 31 30 30 30 30 30 30 29 30 31 33 34 32 31 32 31 33 34 33 33 32 26 24 19 16 19 19 20 23 26 32 37 40 35 35 32 26 30 24 28 24
31 29 29 29 28 28 30 30 29 30 28 27 27 29 31 33 32 30 30 29 30 28 27 26 25 22 19 18 14 19 19 15 21 20 22 25 34 38 43 33 33 32 32 29 29
30 30 30 29 30 29 29 28 27 27 28 28 28 29 31 34 31 30 30 29 28 25 20 19 23 19 21 20 19 20 24 21 20 20 19 18 21 24 39 31 33 37 36 33 33
35 34 32 30 31 32 31 30 29 28 30 30 29 29 32 37 33 32 31 29 29 28 25 22 24 23 27 27 24 25 24 26 27 25 20 16 25 25 29 25 30 36 40 40 38
36 36 38 37 38 36 34 32 33 33 31 28 29 29 31 40 38 34 31 33 34 34 33 30 30 30 30 29 26 25 22 24 32 30 23 19 31 32 28 25 32 33 35 40 43
42 41 41 42 40 41 41 38 37 35 32 31 29 26 29 39 37 36 35 36 37 37 36 37 35 34 36 36 36 33 28 28 38 32 26 20 27 40 30 28 31 34 38 37 41
48 48 47 45 45 44 45 43 40 39 39 36 28 28 32 40 41 39 39 37 36 39 37 37 34 36 43 45 38 42 33 32 36 40 32 24 22 42 39 30 31 33 32 35 35
45 48 50 51 48 48 48 48 46 43 43 39 37 35 36 39 43 44 46 45 44 42 40 39 36 36 48 46 38 41 38 38 36 48 36 31 25 32 44 37 37 37 35 32 29
58 56 53 53 49 50 52 50 51 51 49 46 44 44 44 44 46 51 51 49 46 44 47 42 42 44 53 46 38 36 36 37 43 49 43 36 30 30 39 46 47 44 45 41 36
56 61 58 57 59 56 59 55 54 49 42 49 45 43 52 53 50 59 59 55 54 55 56 49 45 54 55 52 47 45 42 38 38 46 43 38 30 34 38 45 51 47 49 44 40
68 59 65 63 69 66 68 62 63 57 50 51 52 55 57 54 54 60 61 61 59 56 60 55 51 59 59 56 56 51 51 49 44 45 42 41 30 39 40 41 49 52 51 47 44
64 67 73 67 69 74 69 68 70 62 55 48 56 64 63 61 54 59 64 64 62 63 63 56 64 62 59 60 69 55 65 58 54 50 41 45 26 41 46 44 45 49 55 58 55
82 75 69 73 74 68 69 81 70 82 50 65 50 59 63 66 70 67 68 59 57 64 71 68 63 66 63 68 70 65 72 70 66 59 51 47 45 35 46 50 49 50 55 57 59
81 75 77 83 77 80 80 78 81 76 71 68 72 71 72 75 71 78 63 69 72 69 71 60 65 70 73 70 73 80 84 80 73 73 53 58 62 33 51 52 53 52 54 51 59
84 85 81 86 90 86 86 88 94 82 82 83 80 83 75 76 78 73 82 74 77 84 75 82 80 74 80 85 82 87 88 90 78 76 79 78 69 52 57 59 61 61 60 57 56
90 90 91 88 95 95 95 94 97 92 87 96 96 86 91 91 84 87 82 81 88 84 89 85 74 83 82 85 91 94 88 93 103 90 75 84 74 61 67 65 61 55 62 68 66
98 98 95 100 97 99 102 99 94 93 93 100 96 94 95 97 95 95 98 93 89 96 97 100 90 87 87 94 92 95 94 101 108 103 101 85 78 71 75 70 68 72 74 70 75
108 105 101 103 104 106 109 103 98 96 103 106 110 104 99 104 106 106 107 106 104 105 109 111 119 101 101 100 99 104 105 104 111 117 114 108 100 91 94 86 88 90 82 89 73
118 116 112 114 115 120 116 111 112 114 111 116 115 119 115 115 117 120 121 111 115 116 118 124 128 113 107 106 113 115 123 123 122 124 126 124 117 103 101 98 100 95 99 101 95
125 124 123 123 123 125 126 121 121 117 124 124 129 123 123 122 125 131 131 122 116 124 129 128 132 134 119 122 121 123 136 141 138 132 131 137 137 112 107 110 104 101 102 107 101
131 128 132 134 133 129 133 129 129 129 130 138 139 133 131 133 136 129 133 132 131 129 130 132 137 139 142 134 129 148 146 146 144 152 148 145 142 124 119 112 105 107 106 104 106
143 147 141 148 151 142 139 141 142 135 133 143 150 151 147 147 141 144 144 139 139 137 134 133 134 140 149 147 144 155 149 143 140 149 151 152 144 127 108 100 97 100 103 103 106
161 159 158 156 159 161 156 155 151 151 150 154 156 158 155 152 147 150 148 146 150 144 143 146 149 150 150 154 159 151 145 142 142 132 141 134 135 123 115 101 105 104 96 103 109
175 176 179 175 179 177 168 169 170 164 165 166 165 157 158 156 152 151 153 157 148 145 150 151 148 142 140 128 116 116 118 114 110 112 125 131 132 123 118 115 115 111 108 114 114
164 152 147 149 149 147 136 139 141 149 148 152 150 152 151 152 152 156 160 157 143 141 138 130 128 126 121 119 117 113 97 96 100 108 110 111 111 120 120 119 118 119 113 112 111
Wind_Direction
271 269 267 266 268 268 265 265 267 267 269 274 278 283 288 291 287 285 285 286 289 289 292 294 294 295 288 282 285 282 273 266 264 264 263 259 256 252 254 259 267 265 257 256 258
271 271 271 271 269 272 272 269 268 268 271 273 276 282 283 285 288 289 286 288 292 293 294 296 297 297 294 292 294 291 283 280 272 268 265 264 260 254 252 249 260 258 264 259 252
270 273 274 275 277 278 275 276 278 276 274 279 286 291 292 292 293 294 297 296 296 297 298 299 301 304 305 316 317 310 294 293 284 277 268 264 264 258 254 244 245 261 255 261 257
266 271 274 275 275 275 274 275 278 277 283 287 291 296 297 296 297 302 303 304 303 303 302 300 302 310 312 315 323 324 317 312 305 293 283 274 266 264 260 258 240 249 259 254 257
266 267 267 269 271 272 273 273 274 276 281 283 286 289 293 293 295 295 298 301 305 306 298 295 297 301 302 305 311 315 315 314 309 301 308 291 289 278 265 266 257 251 253 252 251
265 265 266 268 270 269 269 270 270 269 271 274 278 283 284 283 286 287 290 293 295 294 292 288 285 289 291 299 298 292 303 304 301 297 300 308 304 278 281 271 264 256 252 250 251
270 272 269 268 269 270 271 270 271 272 274 277 279 284 287 284 287 288 293 288 287 286 284 284 282 287 283 284 285 284 289 297 293 294 295 298 299 285 287 289 278 267 258 249 250
272 271 271 270 272 270 269 268 269 271 272 275 282 285 284 284 284 287 287 288 288 289 286 287 287 285 288 283 280 280 280 289 292 283 285 289 292 287 283 287 280 279 271 262 254
281 282 280 271 272 272 272 269 268 274 274 277 280 284 279 280 283 284 283 283 284 284 285 285 288 289 286 280 282 281 283 278 285 285 280 283 282 291 286 281 281 277 275 273 271
281 287 282 283 282 276 274 272 271 272 275 274 275 278 281 281 282 286 284 280 278 281 280 281 290 289 280 282 285 281 278 278 274 281 281 277 270 287 292 291 283 281 278 272 273
269 277 282 279 281 283 277 276 277 272 276 278 275 281 277 278 282 281 280 283 281 283 279 287 293 287 279 288 283 285 285 277 270 274 277 277 271 277 286 289 286 282 283 282 277
272 266 274 277 276 279 285 280 279 275 276 278 278 278 277 275 277 280 278 277 279 284 288 284 295 284 286 284 282 283 278 278 275 277 277 271 271 272 276 280 283 285 281 280 278
265 274 262 272 271 274 277 277 280 281 274 281 282 287 282 280 275 274 276 277 280 282 279 288 292 283 282 286 284 281 282 274 274 275 284 274 274 274 274 271 279 284 282 280 277
267 268 262 271 274 269 276 280 273 279 275 279 280 284 281 276 280 280 278 280 281 279 282 287 284 288 291 291 283 289 280 280 277 276 273 277 267 270 268 271 271 278 279 280 280
263 261 264 273 269 268 271 272 274 268 282 267 280 276 282 285 276 282 279 275 277 280 281 280 277 282 287 284 285 290 289 286 285 283 278 277 270 259 274 278 275 272 272 278 279
266 264 265 265 282 269 273 273 285 268 287 295 275 284 274 275 283 274 282 272 276 286 280 283 284 283 278 283 288 284 281 287 286 280 283 285 278 273 267 271 271 271 273 271 275
264 264 267 269 272 274 276 272 276 290 281 284 291 282 291 284 280 279 274 280 275 275 283 280 280 286 285 275 283 287 282 280 287 282 278 276 282 284 284 265 263 267 270 272 273
265 271 267 272 272 274 275 277 282 294 282 280 292 283 289 292 291 286 283 282 269 275 276 285 279 280 281 281 279 280 281 283 283 284 280 273 281 287 286 283 275 264 265 267 269
269 273 268 271 272 272 272 276 283 284 279 276 279 286 287 285 285 286 287 289 284 281 286 278 286 277 276 276 278 278 281 278 281 281 284 287 284 287 282 280 278 276 267 271 269
270 272 272 272 271 271 273 275 279 275 279 275 281 281 279 281 281 284 287 288 287 287 285 284 285 287 283 274 280 278 279 280 282 283 281 283 286 288 285 284 284 281 276 270 271
273 270 272 271 269 271 275 277 273 277 273 275 279 280 281 282 281 282 286 288 286 285 284 285 284 286 278 278 281 282 284 287 284 284 284 283 282 284 283 285 280 275 278 284 275
269 271 272 272 273 275 278 276 277 277 278 278 278 278 277 277 280 281 284 285 281 281 284 284 285 283 281 280 279 282 285 286 282 282 282 283 282 284 278 278 279 279 272 277 276
267 266 270 271 272 272 275 273 272 276 277 278 279 279 277 278 280 278 280 281 280 280 281 281 283 283 285 286 283 287 287 287 287 286 285 284 285 283 283 285 277 274 273 276 275
264 267 267 270 272 274 273 272 272 272 274 276 277 277 277 277 277 278 278 277 278 281 281 276 275 277 281 283 281 281 281 282 282 282 284 283 284 284 282 280 278 274 274 274 271
268 268 266 266 268 270 271 271 269 270 269 273 277 277 276 277 275 277 277 275 277 276 275 274 276 276 274 274 278 278 276 277 276 273 275 281 280 277 276 271 271 269 264 264 265
269 270 271 270 271 273 272 271 271 270 270 272 272 271 271 273 275 274 274 277 275 275 275 276 278 278 278 277 275 274 270 273 273 270 269 272 274 277 273 266 268 269 265 268 265
269 272 272 273 272 273 273 273 272 272 271 270 271 269 269 270 273 275 277 278 278 278 278 277 277 278 277 277 277 274 273 271 272 270 268 270 272 268 271 272 270 268 264 269 271
Height
10831 10831 10831 10831 10831 10831 10831 10832 10832 10831 10831 10830 10830 10829 10827 10826 10825 10824 10823 10823 10821 10819 10818 10817 10815 10814 10813 10811 10810 10809 10809 10807 10807 10807 10807 10806 10806 10805 10804 10803 10801 10800 10800 10801 10800
10825 10825 10825 10825 10826 10826 10826 10826 10826 10826 10825 10825 10824 10823 10821 10820 10820 10819 10818 10816 10815 10813 10812 10811 10809 10808 10807 10807 10806 10804 10803 10802 10801 10800 10799 10799 10799 10799 10799 10799 10797 10797 10795 10796 10796
10819 10819 10820 10821 10820 10821 10820 10820 10820 10820 10820 10819 10819 10817 10814 10812 10813 10813 10811 10810 10809 10807 10807 10805 10803 10802 10801 10801 10801 10799 10798 10797 10794 10793 10792 10792 10790 10793 10792 10792 10794 10791 10791 10790 10790
10814 10813 10814 10814 10815 10815 10815 10815 10814 10815 10816 10815 10814 10812 10809 10806 10805 10805 10804 10804 10803 10802 10801 10800 10798 10797 10796 10796 10795 10794 10793 10792 10789 10787 10787 10786 10783 10786 10781 10783 10786 10785 10785 10785 10784
10807 10808 10808 10808 10809 10808 10809 10810 10810 10810 10810 10810 10810 10808 10805 10799 10801 10800 10799 10798 10797 10796 10796 10795 10794 10793 10791 10791 10791 10790 10787 10787 10785 10783 10782 10782 10780 10778 10768 10776 10779 10778 10777 10777 10776
10799 10801 10801 10801 10801 10802 10803 10804 10804 10804 10804 10805 10804 10803 10800 10792 10795 10795 10794 10793 10791 10790 10790 10790 10788 10788 10786 10786 10786 10784 10782 10780 10778 10778 10779 10778 10771 10767 10765 10770 10767 10769 10769 10768 10769
10792 10793 10794 10794 10794 10794 10795 10796 10796 10796 10798 10798 10798 10798 10795 10786 10787 10788 10788 10787 10785 10785 10783 10783 10782 10782 10781 10779 10777 10777 10778 10775 10768 10770 10773 10774 10762 10760 10763 10763 10759 10757 10757 10759 10759
10784 10785 10785 10786 10786 10786 10786 10789 10788 10789 10791 10792 10793 10793 10788 10780 10780 10779 10779 10777 10777 10775 10775 10775 10775 10775 10772 10770 10770 10770 10772 10770 10758 10763 10767 10769 10760 10750 10757 10756 10752 10748 10749 10750 10750
10774 10775 10775 10777 10777 10776 10778 10780 10780 10781 10782 10783 10785 10786 10782 10775 10771 10771 10769 10767 10767 10765 10764 10764 10766 10766 10761 10758 10765 10762 10767 10764 10758 10751 10758 10761 10757 10741 10745 10749 10744 10741 10741 10741 10742
10764 10765 10766 10766 10766 10766 10768 10769 10772 10772 10773 10773 10776 10776 10774 10770 10763 10759 10757 10757 10757 10756 10755 10754 10758 10756 10742 10748 10757 10753 10756 10755 10752 10738 10749 10754 10753 10742 10733 10738 10736 10732 10731 10730 10732
10754 10754 10755 10755 10755 10755 10756 10758 10760 10764 10764 10764 10768 10766 10764 10762 10759 10748 10743 10746 10745 10747 10744 10750 10751 10744 10730 10739 10741 10742 10743 10744 10741 10733 10740 10744 10747 10742 10731 10723 10722 10724 10723 10724 10724
10740 10742 10742 10742 10742 10743 10743 10744 10746 10751 10757 10756 10754 10757 10751 10749 10751 10738 10734 10733 10734 10737 10733 10737 10744 10729 10727 10726 10730 10730 10729 10731 10732 10724 10730 10733 10738 10735 10726 10716 10706 10715 10710 10713 10714
10728 10727 10728 10729 10731 10730 10730 10731 10732 10736 10746 10745 10740 10743 10737 10735 10737 10728 10723 10725 10726 10725 10716 10727 10727 10717 10715 10717 10711 10716 10714 10714 10718 10713 10717 10723 10735 10723 10714 10711 10704 10698 10703 10702 10701
10712 10713 10713 10715 10715 10715 10715 10714 10716 10717 10730 10734 10730 10724 10719 10721 10722 10718 10710 10710 10714 10711 10704 10718 10707 10705 10707 10708 10688 10714 10689 10699 10701 10701 10708 10705 10723 10718 10705 10702 10697 10694 10690 10688 10689
10694 10696 10695 10693 10697 10696 10696 10698 10699 10699 10719 10717 10718 10715 10704 10703 10704 10702 10696 10695 10696 10691 10693 10703 10695 10691 10692 10688 10681 10696 10679 10679 10684 10687 10694 10696 10694 10712 10699 10693 10690 10682 10678 10676 10672
10674 10677 10678 10675 10675 10676 10677 10676 10678 10682 10700 10696 10697 10697 10696 10689 10686 10684 10682 10680 10676 10675 10679 10681 10677 10681 10676 10670 10664 10666 10663 10658 10662 10667 10682 10674 10672 10711 10687 10686 10678 10674 10668 10668 10659
10651 10654 10658 10658 10654 10648 10651 10654 10653 10668 10674 10671 10672 10670 10672 10672 10668 10666 10666 10664 10660 10656 10659 10662 10668 10664 10655 10651 10646 10639 10641 10636 10639 10641 10658 10655 10659 10676 10671 10666 10665 10661 10657 10654 10651
10626 10630 10634 10637 10632 10624 10620 10624 10637 10651 10644 10638 10639 10643 10644 10642 10642 10640 10645 10645 10640 10636 10640 10641 10655 10643 10640 10626 10626 10624 10617 10614 10596 10615 10629 10632 10651 10659 10649 10649 10645 10647 10646 10643 10638
10600 10606 10614 10609 10605 10602 10595 10599 10622 10623 10617 10607 10607 10616 10622 10617 10608 10611 10614 10623 10620 10611 10606 10605 10628 10623 10619 10607 10602 10606 10600 10591 10568 10577 10584 10618 10628 10634 10631 10630 10634 10631 10627 10625 10621
10573 10579 10589 10580 10578 10573 10570 10588 10596 10596 10586 10580 10580 10586 10598 10593 10585 10583 10585 10599 10591 10590 10580 10574 10563 10607 10588 10581 10586 10569 10565 10567 10557 10541 10543 10566 10592 10609 10608 10608 10609 10603 10602 10598 10594
10546 10549 10564 10554 10550 10545 10555 10571 10570 10573 10567 10555 10557 10548 10565 10564 10554 10553 10557 10574 10567 10563 10550 10542 10534 10573 10559 10559 10549 10544 10539 10543 10533 10523 10516 10516 10540 10584 10582 10584 10576 10571 10568 10567 10567
10517 10521 10527 10519 10516 10517 10528 10533 10531 10538 10532 10526 10520 10526 10528 10534 10526 10525 10524 10540 10547 10529 10517 10514 10497 10495 10521 10519 10518 10514 10514 10506 10490 10497 10491 10483 10479 10549 10545 10544 10543 10542 10536 10533 10529
10492 10495 10495 10493 10497 10502 10501 10500 10500 10509 10504 10493 10488 10495 10492 10497 10489 10501 10498 10504 10506 10497 10490 10487 10464 10457 10463 10488 10499 10469 10468 10457 10451 10444 10450 10450 10456 10484 10485 10502 10509 10501 10499 10493 10481
10469 10468 10468 10462 10470 10470 10470 10473 10465 10481 10476 10466 10456 10457 10459 10459 10463 10456 10467 10466 10468 10463 10460 10448 10439 10437 10438 10447 10456 10443 10443 10438 10425 10410 10413 10405 10416 10443 10446 10451 10462 10452 10454 10452 10448
10431 10434 10434 10436 10443 10436 10435 10439 10448 10445 10440 10438 10426 10424 10420 10415 10420 10418 10410 10424 10442 10437 10431 10410 10406 10409 10416 10414 10407 10401 10401 10401 10390 10394 10376 10383 10375 10388 10408 10425 10420 10413 10419 10413 10412
10386 10384 10384 10393 10393 10396 10398 10400 10393 10407 10394 10402 10396 10395 10388 10382 10374 10381 10381 10372 10394 10401 10381 10375 10367 10370 10363 10364 10369 10353 10359 10371 10370 10370 10353 10344 10335 10363 10362 10363 10372 10388 10386 10369 10356
10344 10335 10330 10346 10347 10344 10351 10343 10347 10350 10360 10353 10352 10347 10351 10351 10347 10338 10333 10338 10339 10337 10349 10338 10332 10329 10324 10326 10314 10307 10343 10343 10337 10331 10327 10317 10313 10300 10315 10324 10335 10349 10354 10347 10339